Time,TemperatureF,DewpointF,PressureIn,WindDirection,WindDirectionDegrees,WindSpeedMPH,WindSpeedGustMPH,Humidity,HourlyPrecipIn,Conditions,Clouds,dailyrainin,SoftwareType,DateUTC
2013-04-03 00:03:00,40.0,17.0,30.13,NNW,340,9.0,13.0,39,0.00,,,0.00,,2013-04-03 04:03:00,
2013-04-03 00:13:00,40.0,17.0,30.13,NNW,340,9.0,13.0,39,0.00,,,0.00,,2013-04-03 04:13:00,
2013-04-03 00:23:00,40.0,17.0,30.13,NNW,340,9.0,13.0,39,0.00,,,0.00,,2013-04-03 04:23:00,
2013-04-03 00:33:00,40.0,17.0,30.13,NNW,330,10.0,13.0,39,0.00,,,0.00,,2013-04-03 04:33:00,
2013-04-03 00:43:00,40.0,17.0,30.13,NNW,330,10.0,13.0,39,0.00,,,0.00,,2013-04-03 04:43:00,
2013-04-03 00:53:00,39.0,16.0,30.13,NW,325,10.0,12.0,39,0.00,,,0.00,,2013-04-03 04:53:00,
2013-04-03 01:02:00,39.0,16.0,30.13,NW,320,9.0,9.0,39,0.00,,,0.00,,2013-04-03 05:02:00,
2013-04-03 01:12:00,39.0,16.0,30.13,NW,320,9.0,9.0,39,0.00,,,0.00,,2013-04-03 05:12:00,
2013-04-03 01:22:00,39.0,16.0,30.13,NW,320,13.0,17.0,39,0.00,,,0.00,,2013-04-03 05:22:00,
2013-04-03 01:32:00,39.0,16.0,30.16,NW,315,13.0,15.0,39,0.00,,,0.00,,2013-04-03 05:32:00,
2013-04-03 01:42:00,39.0,16.0,30.16,NW,315,13.0,15.0,39,0.00,,,0.00,,2013-04-03 05:42:00,
2013-04-03 01:53:00,38.0,15.0,30.16,NW,310,9.0,12.0,39,0.00,,,0.00,,2013-04-03 05:53:00,
2013-04-03 02:02:00,39.0,16.0,30.16,NW,310,9.0,14.0,39,0.00,,,0.00,,2013-04-03 06:02:00,
2013-04-03 02:12:00,39.0,16.0,30.16,NW,310,9.0,14.0,39,0.00,,,0.00,,2013-04-03 06:12:00,
2013-04-03 02:22:00,39.0,16.0,30.16,NW,320,9.0,14.0,39,0.00,,,0.00,,2013-04-03 06:22:00,
2013-04-03 02:32:00,39.0,16.0,30.16,NW,315,9.0,14.0,39,0.00,,,0.00,,2013-04-03 06:32:00,
2013-04-03 02:42:00,39.0,16.0,30.16,NW,315,9.0,14.0,39,0.00,,,0.00,,2013-04-03 06:42:00,
2013-04-03 02:52:00,38.0,15.0,30.16,NNW,330,9.0,15.0,39,0.00,,,0.00,,2013-04-03 06:52:00,
2013-04-03 03:02:00,39.0,16.0,30.16,NW,325,10.0,16.0,39,0.00,,,0.00,,2013-04-03 07:02:00,
2013-04-03 03:12:00,39.0,16.0,30.16,NW,325,10.0,16.0,39,0.00,,,0.00,,2013-04-03 07:12:00,
2013-04-03 03:23:00,39.0,16.0,30.16,NW,305,14.0,18.0,39,0.00,,,0.00,,2013-04-03 07:23:00,
2013-04-03 03:33:00,38.0,15.0,30.16,NNW,330,15.0,18.0,39,0.00,,,0.00,,2013-04-03 07:33:00,
2013-04-03 03:42:00,38.0,15.0,30.16,NNW,330,15.0,18.0,39,0.00,,,0.00,,2013-04-03 07:42:00,
2013-04-03 03:53:00,38.0,15.0,30.16,NW,310,16.0,18.0,39,0.00,,,0.00,,2013-04-03 07:53:00,
2013-04-03 04:03:00,38.0,15.0,30.16,WNW,290,15.0,20.0,39,0.00,,,0.00,,2013-04-03 08:03:00,
2013-04-03 04:12:00,38.0,15.0,30.16,WNW,290,15.0,20.0,39,0.00,,,0.00,,2013-04-03 08:12:00,
2013-04-03 04:22:00,38.0,15.0,30.16,NW,320,12.0,17.0,39,0.00,,,0.00,,2013-04-03 08:22:00,
2013-04-03 04:32:00,38.0,15.0,30.19,NW,325,10.0,10.0,39,0.00,,,0.00,,2013-04-03 08:32:00,
2013-04-03 04:42:00,38.0,15.0,30.19,NW,325,10.0,10.0,39,0.00,,,0.00,,2013-04-03 08:42:00,
2013-04-03 04:52:00,37.0,14.0,30.19,NW,310,9.0,10.0,39,0.00,,,0.00,,2013-04-03 08:52:00,
2013-04-03 05:02:00,37.0,14.0,30.19,NW,305,9.0,13.0,39,0.00,,,0.00,,2013-04-03 09:02:00,
2013-04-03 05:12:00,37.0,14.0,30.19,NW,305,9.0,13.0,39,0.00,,,0.00,,2013-04-03 09:12:00,
2013-04-03 05:22:00,37.0,14.0,30.19,WNW,285,8.0,9.0,39,0.00,,,0.00,,2013-04-03 09:22:00,
2013-04-03 05:33:00,37.0,14.0,30.19,West,280,8.0,9.0,39,0.00,,,0.00,,2013-04-03 09:33:00,
2013-04-03 05:43:00,37.0,14.0,30.19,West,280,8.0,9.0,39,0.00,,,0.00,,2013-04-03 09:43:00,
2013-04-03 05:53:00,37.0,14.0,30.19,WNW,300,9.0,13.0,39,0.00,,,0.00,,2013-04-03 09:53:00,
2013-04-03 06:03:00,36.0,13.0,30.19,NW,305,9.0,9.0,39,0.00,,,0.00,,2013-04-03 10:03:00,
2013-04-03 06:12:00,36.0,13.0,30.19,NW,305,9.0,9.0,39,0.00,,,0.00,,2013-04-03 10:12:00,
2013-04-03 06:22:00,37.0,14.0,30.19,NW,305,8.0,10.0,39,0.00,,,0.00,,2013-04-03 10:22:00,
2013-04-03 06:33:00,36.0,13.0,30.22,WNW,295,8.0,13.0,39,0.00,,,0.00,,2013-04-03 10:33:00,
2013-04-03 06:43:00,36.0,13.0,30.22,WNW,295,8.0,13.0,39,0.00,,,0.00,,2013-04-03 10:43:00,
2013-04-03 06:53:00,36.0,13.0,30.22,WNW,285,6.0,13.0,39,0.00,,,0.00,,2013-04-03 10:53:00,
2013-04-03 07:02:00,36.0,13.0,30.22,NW,305,6.0,10.0,39,0.00,,,0.00,,2013-04-03 11:02:00,
2013-04-03 07:12:00,36.0,13.0,30.22,NW,305,6.0,10.0,39,0.00,,,0.00,,2013-04-03 11:12:00,
2013-04-03 07:23:00,36.0,13.0,30.22,West,260,5.0,7.0,39,0.00,,,0.00,,2013-04-03 11:23:00,
2013-04-03 07:32:00,35.0,13.0,30.22,WSW,255,2.0,5.0,39,0.00,,,0.00,,2013-04-03 11:32:00,
2013-04-03 07:42:00,35.0,13.0,30.22,WSW,255,2.0,5.0,39,0.00,,,0.00,,2013-04-03 11:42:00,
2013-04-03 07:53:00,37.0,14.0,30.22,WNW,290,6.0,7.0,39,0.00,,,0.00,,2013-04-03 11:53:00,
2013-04-03 08:02:00,37.0,14.0,30.22,West,270,6.0,8.0,39,0.00,,,0.00,,2013-04-03 12:02:00,
2013-04-03 08:13:00,37.0,14.0,30.22,West,270,6.0,8.0,39,0.00,,,0.00,,2013-04-03 12:13:00,
2013-04-03 08:22:00,39.0,16.0,30.22,WSW,255,5.0,9.0,39,0.00,,,0.00,,2013-04-03 12:22:00,
2013-04-03 08:33:00,39.0,16.0,30.22,West,275,5.0,9.0,39,0.00,,,0.00,,2013-04-03 12:33:00,
2013-04-03 08:42:00,39.0,16.0,30.22,West,275,5.0,9.0,39,0.00,,,0.00,,2013-04-03 12:42:00,
2013-04-03 08:52:00,40.0,17.0,30.25,WNW,285,7.0,13.0,39,0.00,,,0.00,,2013-04-03 12:52:00,
2013-04-03 09:02:00,41.0,18.0,30.22,WNW,290,7.0,8.0,39,0.00,,,0.00,,2013-04-03 13:02:00,
2013-04-03 09:12:00,41.0,18.0,30.22,WNW,290,7.0,8.0,39,0.00,,,0.00,,2013-04-03 13:12:00,
2013-04-03 09:22:00,41.0,18.0,30.22,WNW,290,7.0,8.0,39,0.00,,,0.00,,2013-04-03 13:22:00,
2013-04-03 09:32:00,41.0,18.0,30.22,West,280,8.0,10.0,39,0.00,,,0.00,,2013-04-03 13:32:00,
2013-04-03 09:42:00,41.0,18.0,30.22,West,280,8.0,10.0,39,0.00,,,0.00,,2013-04-03 13:42:00,
2013-04-03 09:52:00,42.0,19.0,30.22,West,275,8.0,10.0,39,0.00,,,0.00,,2013-04-03 13:52:00,
2013-04-03 10:02:00,42.0,19.0,30.22,West,270,8.0,10.0,39,0.00,,,0.00,,2013-04-03 14:02:00,
2013-04-03 10:12:00,42.0,19.0,30.22,West,270,8.0,10.0,39,0.00,,,0.00,,2013-04-03 14:12:00,
2013-04-03 10:22:00,44.0,21.0,30.22,West,275,9.0,10.0,39,0.00,,,0.00,,2013-04-03 14:22:00,
2013-04-03 10:32:00,45.0,22.0,30.22,WNW,295,9.0,12.0,39,0.00,,,0.00,,2013-04-03 14:32:00,
2013-04-03 10:42:00,45.0,22.0,30.22,WNW,295,9.0,12.0,39,0.00,,,0.00,,2013-04-03 14:42:00,
2013-04-03 10:52:00,46.0,22.0,30.22,West,270,8.0,10.0,39,0.00,,,0.00,,2013-04-03 14:52:00,
2013-04-03 11:02:00,45.0,22.0,30.22,WNW,300,8.0,15.0,39,0.00,,,0.00,,2013-04-03 15:02:00,
2013-04-03 11:12:00,45.0,22.0,30.22,WNW,300,8.0,15.0,39,0.00,,,0.00,,2013-04-03 15:12:00,
2013-04-03 11:23:00,46.0,22.0,30.22,NW,315,13.0,17.0,39,0.00,,,0.00,,2013-04-03 15:23:00,
2013-04-03 11:33:00,46.0,22.0,30.22,West,275,12.0,22.0,39,0.00,,,0.00,,2013-04-03 15:33:00,
2013-04-03 11:43:00,46.0,22.0,30.22,West,275,12.0,22.0,39,0.00,,,0.00,,2013-04-03 15:43:00,
2013-04-03 11:53:00,46.0,22.0,30.22,West,280,14.0,22.0,39,0.00,,,0.00,,2013-04-03 15:53:00,
2013-04-03 12:03:00,46.0,22.0,30.22,NW,305,14.0,15.0,39,0.00,,,0.00,,2013-04-03 16:03:00,
2013-04-03 12:13:00,46.0,22.0,30.22,NW,305,14.0,15.0,39,0.00,,,0.00,,2013-04-03 16:13:00,
2013-04-03 12:24:00,47.0,23.0,30.22,NW,305,14.0,18.0,39,0.00,,,0.00,,2013-04-03 16:24:00,
2013-04-03 12:33:00,47.0,23.0,30.22,NW,305,15.0,18.0,39,0.00,,,0.00,,2013-04-03 16:33:00,
2013-04-03 12:43:00,47.0,23.0,30.22,NW,305,15.0,18.0,39,0.00,,,0.00,,2013-04-03 16:43:00,
2013-04-03 12:53:00,48.0,24.0,30.22,WNW,295,15.0,17.0,39,0.00,,,0.00,,2013-04-03 16:53:00,
2013-04-03 13:03:00,47.0,23.0,30.19,NW,305,15.0,16.0,39,0.00,,,0.00,,2013-04-03 17:03:00,
2013-04-03 13:14:00,47.0,23.0,30.19,NW,305,15.0,16.0,39,0.00,,,0.00,,2013-04-03 17:14:00,
2013-04-03 13:23:00,48.0,24.0,30.19,WNW,290,13.0,16.0,39,0.00,,,0.00,,2013-04-03 17:23:00,
2013-04-03 13:33:00,47.0,23.0,30.19,NNW,335,14.0,17.0,39,0.00,,,0.00,,2013-04-03 17:33:00,
2013-04-03 13:46:00,47.0,23.0,30.19,NNW,335,14.0,17.0,39,0.00,,,0.00,,2013-04-03 17:46:00,
2013-04-03 13:54:00,47.0,23.0,30.19,NW,315,13.0,14.0,39,0.00,,,0.00,,2013-04-03 17:54:00,
2013-04-03 14:02:00,47.0,23.0,30.19,NW,310,13.0,14.0,39,0.00,,,0.00,,2013-04-03 18:02:00,
2013-04-03 14:13:00,47.0,23.0,30.19,NW,310,13.0,14.0,39,0.00,,,0.00,,2013-04-03 18:13:00,
2013-04-03 14:23:00,48.0,24.0,30.19,NW,305,13.0,18.0,39,0.00,,,0.00,,2013-04-03 18:23:00,
2013-04-03 14:33:00,47.0,23.0,30.19,NW,315,14.0,18.0,39,0.00,,,0.00,,2013-04-03 18:33:00,
2013-04-03 14:43:00,47.0,23.0,30.19,NW,315,14.0,18.0,39,0.00,,,0.00,,2013-04-03 18:43:00,
2013-04-03 14:52:00,48.0,24.0,30.16,NW,315,15.0,18.0,39,0.00,,,0.00,,2013-04-03 18:52:00,
2013-04-03 15:03:00,47.0,23.0,30.16,WNW,300,14.0,14.0,39,0.00,,,0.00,,2013-04-03 19:03:00,
2013-04-03 15:12:00,47.0,23.0,30.16,WNW,300,14.0,14.0,39,0.00,,,0.00,,2013-04-03 19:12:00,
2013-04-03 15:22:00,47.0,23.0,30.16,NNW,330,12.0,14.0,39,0.00,,,0.00,,2013-04-03 19:22:00,
2013-04-03 15:32:00,48.0,24.0,30.16,NW,305,13.0,15.0,39,0.00,,,0.00,,2013-04-03 19:32:00,
2013-04-03 15:42:00,48.0,24.0,30.16,NW,305,13.0,15.0,39,0.00,,,0.00,,2013-04-03 19:42:00,
2013-04-03 15:52:00,49.0,25.0,30.16,WNW,300,14.0,20.0,39,0.00,,,0.00,,2013-04-03 19:52:00,
2013-04-03 16:02:00,49.0,25.0,30.16,NW,320,14.0,14.0,39,0.00,,,0.00,,2013-04-03 20:02:00,
2013-04-03 16:12:00,49.0,25.0,30.16,NW,320,14.0,14.0,39,0.00,,,0.00,,2013-04-03 20:12:00,
2013-04-03 16:23:00,49.0,25.0,30.16,WNW,290,14.0,17.0,39,0.00,,,0.00,,2013-04-03 20:23:00,
2013-04-03 16:32:00,49.0,25.0,30.16,West,270,14.0,16.0,39,0.00,,,0.00,,2013-04-03 20:32:00,
2013-04-03 16:42:00,49.0,25.0,30.16,West,270,14.0,16.0,39,0.00,,,0.00,,2013-04-03 20:42:00,
2013-04-03 16:53:00,49.0,25.0,30.16,NW,325,14.0,16.0,39,0.00,,,0.00,,2013-04-03 20:53:00,
2013-04-03 17:02:00,49.0,25.0,30.16,WNW,290,13.0,15.0,39,0.00,,,0.00,,2013-04-03 21:02:00,
2013-04-03 17:12:00,49.0,25.0,30.16,WNW,290,13.0,15.0,39,0.00,,,0.00,,2013-04-03 21:12:00,
2013-04-03 17:22:00,49.0,25.0,30.19,WNW,300,12.0,15.0,39,0.00,,,0.00,,2013-04-03 21:22:00,
2013-04-03 17:33:00,49.0,25.0,30.19,NW,305,12.0,15.0,39,0.00,,,0.00,,2013-04-03 21:33:00,
2013-04-03 17:42:00,49.0,25.0,30.19,NW,305,12.0,15.0,39,0.00,,,0.00,,2013-04-03 21:42:00,
2013-04-03 17:52:00,49.0,25.0,30.19,WNW,300,13.0,14.0,39,0.00,,,0.00,,2013-04-03 21:52:00,
2013-04-03 18:02:00,48.0,24.0,30.19,NW,305,13.0,14.0,39,0.00,,,0.00,,2013-04-03 22:02:00,
2013-04-03 18:13:00,48.0,24.0,30.19,NW,305,13.0,14.0,39,0.00,,,0.00,,2013-04-03 22:13:00,
2013-04-03 18:22:00,47.0,23.0,30.22,NW,310,14.0,20.0,39,0.00,,,0.00,,2013-04-03 22:22:00,
2013-04-03 18:33:00,46.0,22.0,30.22,NW,315,15.0,20.0,39,0.00,,,0.00,,2013-04-03 22:33:00,
2013-04-03 18:42:00,46.0,22.0,30.22,NW,315,15.0,20.0,39,0.00,,,0.00,,2013-04-03 22:42:00,
2013-04-03 18:52:00,46.0,22.0,30.22,NW,315,13.0,18.0,39,0.00,,,0.00,,2013-04-03 22:52:00,
2013-04-03 19:02:00,45.0,22.0,30.22,NW,305,14.0,15.0,39,0.00,,,0.00,,2013-04-03 23:02:00,
2013-04-03 19:12:00,45.0,22.0,30.22,NW,305,14.0,15.0,39,0.00,,,0.00,,2013-04-03 23:12:00,
2013-04-03 19:22:00,45.0,22.0,30.25,NW,315,16.0,17.0,39,0.00,,,0.00,,2013-04-03 23:22:00,
2013-04-03 19:32:00,45.0,22.0,30.25,NW,320,15.0,18.0,39,0.00,,,0.00,,2013-04-03 23:32:00,
2013-04-03 19:42:00,45.0,22.0,30.25,NW,320,15.0,18.0,39,0.00,,,0.00,,2013-04-03 23:42:00,
2013-04-03 19:54:00,44.0,21.0,30.25,NW,320,15.0,18.0,39,0.00,,,0.00,,2013-04-03 23:54:00,
2013-04-03 20:03:00,44.0,21.0,30.28,NW,320,14.0,16.0,39,0.00,,,0.00,,2013-04-04 00:03:00,
2013-04-03 20:12:00,44.0,21.0,30.28,NW,320,14.0,16.0,39,0.00,,,0.00,,2013-04-04 00:12:00,
2013-04-03 20:22:00,44.0,21.0,30.28,NW,320,17.0,20.0,39,0.00,,,0.00,,2013-04-04 00:22:00,
2013-04-03 20:32:00,43.0,20.0,30.28,NNW,330,18.0,20.0,39,0.00,,,0.00,,2013-04-04 00:32:00,
2013-04-03 20:43:00,43.0,20.0,30.28,NNW,330,18.0,20.0,39,0.00,,,0.00,,2013-04-04 00:43:00,
2013-04-03 20:52:00,43.0,20.0,30.28,NNW,330,15.0,21.0,39,0.00,,,0.00,,2013-04-04 00:52:00,
2013-04-03 21:02:00,42.0,19.0,30.28,NW,315,16.0,21.0,39,0.00,,,0.00,,2013-04-04 01:02:00,
2013-04-03 21:12:00,42.0,19.0,30.28,NW,315,16.0,21.0,39,0.00,,,0.00,,2013-04-04 01:12:00,
2013-04-03 21:22:00,42.0,19.0,30.31,NW,315,14.0,18.0,39,0.00,,,0.00,,2013-04-04 01:22:00,
2013-04-03 21:32:00,42.0,19.0,30.31,NW,325,14.0,21.0,39,0.00,,,0.00,,2013-04-04 01:32:00,
2013-04-03 21:43:00,42.0,19.0,30.31,NW,325,14.0,21.0,39,0.00,,,0.00,,2013-04-04 01:43:00,
2013-04-03 21:52:00,42.0,19.0,30.31,NW,320,15.0,21.0,39,0.00,,,0.00,,2013-04-04 01:52:00,
2013-04-03 22:02:00,42.0,19.0,30.31,NW,320,15.0,21.0,39,0.00,,,0.00,,2013-04-04 02:02:00,
2013-04-03 22:12:00,42.0,19.0,30.31,NW,320,15.0,21.0,39,0.00,,,0.00,,2013-04-04 02:12:00,
2013-04-03 22:22:00,41.0,18.0,30.31,NW,320,16.0,18.0,39,0.00,,,0.00,,2013-04-04 02:22:00,
2013-04-03 22:32:00,41.0,18.0,30.31,NW,315,16.0,18.0,39,0.00,,,0.00,,2013-04-04 02:32:00,
2013-04-03 22:42:00,41.0,18.0,30.31,NW,315,16.0,18.0,39,0.00,,,0.00,,2013-04-04 02:42:00,
2013-04-03 22:53:00,41.0,18.0,30.31,NW,315,16.0,18.0,39,0.00,,,0.00,,2013-04-04 02:53:00,
2013-04-03 23:02:00,40.0,17.0,30.31,NNW,335,13.0,15.0,39,0.00,,,0.00,,2013-04-04 03:02:00,
2013-04-03 23:12:00,40.0,17.0,30.31,NNW,335,13.0,15.0,39,0.00,,,0.00,,2013-04-04 03:12:00,
2013-04-03 23:22:00,39.0,16.0,30.34,NW,325,12.0,15.0,39,0.00,,,0.00,,2013-04-04 03:22:00,
2013-04-03 23:33:00,39.0,16.0,30.34,NW,325,12.0,14.0,39,0.00,,,0.00,,2013-04-04 03:33:00,
2013-04-03 23:45:00,39.0,16.0,30.34,NW,325,12.0,14.0,39,0.00,,,0.00,,2013-04-04 03:45:00,
2013-04-03 23:53:00,39.0,16.0,30.34,NW,315,10.0,14.0,39,0.00,,,0.00,,2013-04-04 03:53:00,